Flag for Norway Weather past 2 weeks in Ny-Ålesund, Svalbard, Norway

Now
27 °F

Overcast.


Feels Like: 16 °F
Forecast: 30 / 31 °F
Wind: 13 mph from West

Location: Ny Alesund

Current Time: Sep 17, 2014 at 3:08:19 PM

Latest Report: Sep 17, 2014 at 2:00 PM


Visibility: 9 mi

Pressure: 29.57 "Hg

Humidity: 71%

Dew point: 19 °F

Location of Ny-ÅlesundLocation

Historic Weather in Ny-Ålesund — Graph

°F

Ny-Ålesund temperature yesterday

Maximum temperature yesterday: 48 °F (at 1:00 PM)
Minimum temperature yesterday: 39 °F (at 12:00 AM)
Average temperature yesterday: 44 °F

Past Weeks' High & Low Weather Summary

 TemperatureHumidityPressure
High48 °F (Sep 16, 1:00 PM)89% (Sep 10, 3:00 AM)30.03 "Hg (Sep 10, 3:00 AM)
Low27 °F (Sep 17, 9:00 AM)53% (Sep 7, 8:00 AM)29.00 "Hg (Sep 13, 4:00 PM)
Average35 °F74%29.67 "Hg
* Reported Sep 2 2:00 PM — Sep 17 1:00 PM, Ny-Ålesund, Weather by CustomWeather, © 2014

Note: Actual official high and low records may vary slightly from our data, if they occured in-between our weather recording intervals... More about our weather records

Advertising

Ny-Ålesund weather history for previous 24 hours

 ConditionsComfort  
Time TempWeatherWind HumidityBarometerVisibility
1:00 PM
Sep 17
28 °FChilly.13 mph73%29.57 "HgN/A
12:00 PM28 °FChilly.9 mph78%29.56 "HgN/A
11:00 AM28 °FChilly.9 mph73%29.56 "HgN/A
10:00 AM27 °FChilly.8 mph74%29.57 "HgN/A
9:00 AM27 °FChilly.9 mph79%29.56 "HgN/A
8:00 AM29 °FOvercast.8 mph78%29.54 "Hg6 mi
7:00 AM30 °FChilly.10 mph80%29.53 "HgN/A
6:00 AM32 °FChilly.8 mph71%29.50 "HgN/A
5:00 AM33 °FChilly.9 mph69%29.54 "HgN/A
4:00 AM33 °FChilly.9 mph76%29.55 "HgN/A
3:00 AM34 °FChilly.10 mph79%29.53 "HgN/A
2:00 AM37 °FChilly.12 mph78%29.54 "HgN/A
1:00 AM38 °FChilly.12 mph77%29.55 "HgN/A
12:00 AM41 °FQuite cool.10 mph70%29.56 "HgN/A
11:00 PM
Sep 16
41 °FQuite cool.6 mph74%29.58 "HgN/A
10:00 PM43 °FQuite cool.6 mph66%29.59 "HgN/A
9:00 PM45 °FCool.5 mph60%29.61 "HgN/A
8:00 PM44 °FOvercast.3 mph58%29.64 "Hg47 mi
7:00 PM43 °FQuite cool.3 mph65%29.66 "HgN/A
6:00 PM43 °FQuite cool.3 mph72%29.67 "HgN/A
5:00 PM44 °FQuite cool.6 mph78%29.68 "HgN/A
4:00 PM46 °FCool.3 mph73%29.67 "HgN/A
3:00 PM47 °FCool.6 mph70%29.67 "HgN/A
Weather by CustomWeather, © 2014

See weather overviewHow to use our weather pages